Location: Aboncourt
(47.7710°N, 5.9826°E)
Time: 03:06:40
(UTC+00:00)

Cosmos 1371 Rocket - Pass Details

Date: 05 July 2020
Orbit: 754 x 790 km, 74.0° (Epoch: 02 August)

Event Time Altitude Azimuth Distance (km) Brightness Sun altitude
Rises 22:34:17 0° 336° (NNW) 3,244 8.9 -18.0°
Reaches altitude 10° 22:36:39 10° 336° (NNW) 2,319 7.7 -18.1°
Maximum altitude 22:41:55 81° 249° (WSW) 789 4.0 -18.3°
Enters shadow 22:44:16 34° 166° (SSE) 1,251 4.5 -18.4°
